Regional Weather Roundup
Issued by NWS San Diego, CA

Home | Current Version | Previous Version | Text Only | Print | Product List | Glossary On
Versions: 1 2 3 4 5 6 7 8 9 10 11 12 13 14 15 16 17 18 19 20 21 22 23 24 25 26 27 28 29 30 31 32 33 34 35 36 37 38 39 40 41 42 43 44 45 46 47 48 49 50
000
ASUS46 KSGX 050411
RWRSGX

SAN DIEGO HOURLY WEATHER ROUNDUP
NATIONAL WEATHER SERVICE SAN DIEGO CA
900 PM PDT SAT JUL 04 2015

NOTE: "FAIR" INDICATES FEW OR NO CLOUDS BELOW 12,000 FEET WITH NO
SIGNIFICANT WEATHER AND/OR OBSTRUCTIONS TO VISIBILITY.

CAZ042-043-060-061-PZZ750-775-050500-

GREATER SAN DIEGO AREA

CITY           SKY/WX    TMP DP  RH WIND       PRES   REMARKS
LINDBERGH FLD  MOCLDY    68  59  73 W8        29.94R
POINT LOMA       N/A     65  59  82 NW12        N/A
NATIONAL CITY    N/A     67  62  82 CALM      29.94R
CHULA VISTA      N/A     67  62  85 W9        29.85R
IMPERIAL BEACH CLOUDY    67  60  78 NW6       29.94R
BROWN FIELD    CLOUDY    65  60  84 W7        29.93R
MIRAMAR MCAS   MOCLDY    68  59  73 W6        29.93R
MONTGOMERY FLD CLOUDY    66  59  78 NW8       29.93R

$$

NORTH SAN DIEGO COUNTY

CITY           SKY/WX    TMP DP  RH WIND       PRES   REMARKS
CAMP PENDLETON CLOUDY    67  60  78 VRB3      29.91R
OCEANSIDE AP   CLOUDY    68  61  78 SW7       29.91R
OCEANSIDE HBR    N/A     67  64  89 W5        29.94R
VISTA            N/A     66  60  82 SW2       29.90R
CARLSBAD       CLOUDY    67  61  81 CALM      29.92R
DEL MAR          N/A     65  62  89 CALM      29.95R
LA JOLLA SCRIP   N/A    N/A N/A N/A W3        29.90R
FALLBROOK        N/A     65  64  96 S3        29.90R
ESCONDIDO        N/A     65  60  82 SW2       29.93R
SAN MARCOS       N/A     64  60  86 CALM      29.90R
POWAY            N/A     65  60  82 CALM      29.93R

$$

EAST SAN DIEGO COUNTY

CITY           SKY/WX    TMP DP  RH WIND       PRES   REMARKS
RAMONA         CLEAR     62  57  83 W7        29.94R
JAMUL            N/A     64  60  87 CALM      29.91R
DESCANSO N       N/A     64  57  77 CALM      29.74R
CAMPO            N/A     64  57  78 S8        29.93R

$$

ORANGE COUNTY AND THE LOS ANGELES BASIN

CITY           SKY/WX    TMP DP  RH WIND       PRES   REMARKS
JOHN WAYNE AP  PTCLDY    66  59  78 SW7       29.91R
LAKE FOREST FR   N/A     64  57  78 W2        29.82R
SANTA ANA        N/A     67  61  82 CALM      29.86R
HUNTINGTON BCH   N/A     65  62  90 W7        29.92R
LOS ALAMITOS   FAIR      67  60  80 NW6       29.90R
FULLERTON      CLEAR     69  59  70 W5        29.89R
LONG BEACH     PTCLDY    68  59  73 NW9       29.90R
L.A. AP        CLOUDY    63  59  87 W8        29.91R
L.A. DOWNTOWN  CLOUDY    64  59  83 CALM      29.90R

$$

THE INLAND EMPIRE

CITY           SKY/WX    TMP DP  RH WIND       PRES   REMARKS
CORONA         MOCLDY    67  58  72 W12G21    29.89R
CHINO          CLEAR     69  59  70 W10       29.91R
ONTARIO        PTCLDY    70  58  65 W12       29.90R
SAN BERNARDINO CLEAR     73  55  53 SW12      29.90R
RIVERSIDE AP   CLEAR     70  58  65 W9        29.90R
MORENO VALLEY    N/A     76  62  61 NW2       29.86R
MARCH ARB      CLEAR     73  58  59 NW8       29.91R
HORSETHIEF CYN   N/A     73  57  57 W3        29.89R
PERRIS           N/A     77  58  52 S1          N/A
MENIFEE          N/A     71  62  72 S6        29.95R
HEMET EAST       N/A     78  53  41 W2        29.87R
FRENCH VALLEY  FAIR      66  59  77 S9        29.93R
TEMECULA         N/A     67  61  80 SW3       29.86R

$$

SAN BERNARDINO AND RIVERSIDE COUNTY MOUNTAINS

CITY           SKY/WX    TMP DP  RH WIND       PRES   REMARKS
BIG BEAR AP    CLEAR     66  36  32 CALM      30.21R
PINE COVE        N/A     68  36  30 N3        29.77R

$$

SOUTHERN DESERT INCLUDING THE COACHELLA VALLEY

CITY           SKY/WX    TMP DP  RH WIND       PRES   REMARKS
PALM SPRINGS   CLEAR     96  56  26 NW18      29.72R
THOUSAND PALMS   N/A     93  56  28 NW12      29.68R
PALM DESERT      N/A     96  59  29 N5          N/A  HX  95
THERMAL        CLEAR     96  65  35 VRB3      29.66R HX  98
BLYTHE         CLEAR     99  55  23 S16       29.70R HX  97
IMPERIAL AP    CLEAR     96  64  34 S9        29.67R HX  98
EL CENTRO NAS  CLEAR     95  64  35 S7        29.70R HX  97
YUMA AZ        CLEAR     96  63  33 SE16      29.72R HX  97
MEXICALI       CLEAR     90  66  45 SE8       29.70R

$$

UPPER DESERT

CITY           SKY/WX    TMP DP  RH WIND       PRES   REMARKS
VICTORVILLE AP CLEAR     82  43  24 CALM      29.91R
HESPERIA         N/A     80  51  36 W7        29.84R
APPLE VALLEY     N/A     82  44  26 CALM      29.97R
PALMDALE       CLEAR     82  44  26 SW12      29.90R
LANCASTER        N/A     79  52  38 SW20      29.88R
EDWARDS AFB    CLEAR     84  46  26 SW16G22   29.84R
DAGGETT        PTCLDY    95  40  14 SW20      29.79R
29 PALMS N     CLEAR     94  49  21 S14       29.86R
NEEDLES        PTCLDY   103  53  19 S13       29.72R HX 101

$$

REGIONAL REPORTS

CITY           SKY/WX    TMP DP  RH WIND       PRES   REMARKS
SANTA BARBARA  CLEAR     63  59  87 CALM      29.88R
SANDBERG       CLEAR     74  47  38 SW3       30.06R
LAS VEGAS NV   PTCLDY    97  49  19 SE7       29.77R
PHOENIX AZ     MOCLDY   100  54  21 W9        29.77R HX  98
TIJUANA        CLOUDY    66  57  72 W8        29.94R
ENSENADA NW      N/A     65  32  29 W6        29.91R

$$

OFFSHORE ISLANDS

CITY           SKY/WX    TMP DP  RH WIND       PRES   REMARKS
CATALINA ARPT  FOG       58  57  97 W14       29.93R VSB 1/4
SAN NICOLAS IS CLOUDY   N/A N/A N/A W16       29.92R

$$

MARINE AND OFFSHORE BUOY REPORTS

STATION/POSITION SKY/WX   TEMP    WIND        PRES    SWELL
                          AIR SEA DIR/SP/G            HT/PER/DIR
                          (F)     (DEG/KT/KT) (MB)    (FT/S/D)
TANNER BANKS               64 63  300/ 14/ 17 1013.1R   3/230/15
S CLEMENTE BASIN           64 68  290/ 10/ 12 1013.1R   3/180/16
SAN NICOLAS IS.               64                N/A     2/190/17
SO. S. ROSA ISLA           63 66  300/ 16/ 17 1011.7R   3/15
W. S. BARBARA CH           61 60  300/ 14/ 17 1011.7R   3/240/14
M. S. BARBARA CH           62 63  260/ 14/ 16 1012.5R
S. MONICA BASIN            64 67  270/  8/ 12 1012.4R   3/250/ 5
S PEDRO CHANNEL               68                N/A     2/180/17
DANA POINT                    70                N/A     2/190/17
OCEANSIDE OFFSHR              70                N/A     2/220/14
TORREY PINES OTR              69                N/A     2/210/17
LA JOLLA 1                 65 72  290/  3/  6 1012.8R
MISSION BAY BUOY              69                N/A     2/210/15
SAN DIEGO BAY                 72              1013.5R
POINT LOMA SOUTH              70                N/A     2/190/17

$$



USA.gov is the U.S. government's official web portal to all federal, state and local government web resources and services.